TimeEDT,TemperatureF,Dew PointF,Humidity,Sea Level PressureIn,VisibilityMPH,Wind Direction,Wind SpeedMPH,Gust SpeedMPH,PrecipitationIn,Events,Conditions,WindDirDegrees,DateUTC
12:17 AM,41.0,41.0,100,30.27,10.0,Calm,Calm,-,N/A,,Clear,0,2013-10-09 04:17:00
12:37 AM,41.0,41.0,100,30.27,10.0,Calm,Calm,-,N/A,,Clear,0,2013-10-09 04:37:00
12:57 AM,41.0,39.2,93,30.27,10.0,Calm,Calm,-,N/A,,Clear,0,2013-10-09 04:57:00
1:17 AM,41.0,39.2,93,30.26,10.0,Calm,Calm,-,N/A,,Clear,0,2013-10-09 05:17:00
1:37 AM,41.0,39.2,93,30.26,10.0,Calm,Calm,-,N/A,,Clear,0,2013-10-09 05:37:00
1:57 AM,41.0,39.2,93,30.26,10.0,Calm,Calm,-,N/A,,Clear,0,2013-10-09 05:57:00
2:17 AM,41.0,37.4,87,30.26,10.0,Calm,Calm,-,N/A,,Clear,0,2013-10-09 06:17:00
2:37 AM,39.2,37.4,93,30.26,10.0,Calm,Calm,-,N/A,,Clear,0,2013-10-09 06:37:00
2:57 AM,39.2,37.4,93,30.25,10.0,Calm,Calm,-,N/A,,Clear,0,2013-10-09 06:57:00
3:17 AM,41.0,39.2,93,30.25,10.0,Calm,Calm,-,N/A,,Clear,0,2013-10-09 07:17:00
3:37 AM,42.8,41.0,93,30.24,10.0,ENE,3.5,-,N/A,,Clear,60,2013-10-09 07:37:00
3:57 AM,42.8,42.8,100,30.24,10.0,NE,4.6,-,N/A,,Clear,50,2013-10-09 07:57:00
4:17 AM,42.8,41.0,93,30.24,10.0,NE,4.6,-,N/A,,Clear,50,2013-10-09 08:17:00
4:37 AM,42.8,41.0,93,30.24,10.0,NE,4.6,-,N/A,,Clear,50,2013-10-09 08:37:00
4:57 AM,41.0,41.0,100,30.24,10.0,ENE,3.5,-,N/A,,Clear,60,2013-10-09 08:57:00
5:17 AM,41.0,41.0,100,30.24,10.0,ENE,4.6,-,N/A,,Clear,60,2013-10-09 09:17:00
5:37 AM,42.8,41.0,93,30.25,10.0,ENE,4.6,-,N/A,,Clear,60,2013-10-09 09:37:00
5:57 AM,42.8,41.0,93,30.25,10.0,ENE,4.6,-,N/A,,Clear,60,2013-10-09 09:57:00
6:17 AM,42.8,41.0,93,30.25,10.0,NE,4.6,-,N/A,,Clear,50,2013-10-09 10:17:00
6:37 AM,41.0,41.0,100,30.25,10.0,NE,3.5,-,N/A,,Clear,40,2013-10-09 10:37:00
6:57 AM,39.2,37.4,93,30.25,10.0,Calm,Calm,-,N/A,,Clear,0,2013-10-09 10:57:00
7:17 AM,37.4,37.4,100,30.26,10.0,Calm,Calm,-,N/A,,Clear,0,2013-10-09 11:17:00
7:37 AM,37.4,35.6,93,30.27,10.0,Calm,Calm,-,N/A,,Clear,0,2013-10-09 11:37:00
7:57 AM,37.4,37.4,100,30.27,10.0,Calm,Calm,-,N/A,,Clear,0,2013-10-09 11:57:00
8:17 AM,41.0,39.2,93,30.28,7.0,Calm,Calm,-,N/A,,Clear,0,2013-10-09 12:17:00
8:37 AM,44.6,42.8,93,30.28,3.0,Calm,Calm,-,N/A,,Clear,0,2013-10-09 12:37:00
8:57 AM,46.4,44.6,93,30.28,10.0,East,3.5,-,N/A,,Clear,100,2013-10-09 12:57:00
9:18 AM,50.0,44.6,82,30.29,10.0,East,3.5,-,N/A,,Clear,90,2013-10-09 13:18:00
9:37 AM,51.8,44.6,76,30.29,10.0,East,5.8,-,N/A,,Clear,100,2013-10-09 13:37:00
9:57 AM,53.6,44.6,72,30.30,10.0,East,6.9,-,N/A,,Clear,100,2013-10-09 13:57:00
10:17 AM,53.6,44.6,72,30.30,10.0,East,5.8,-,N/A,,Clear,100,2013-10-09 14:17:00
10:37 AM,55.4,44.6,67,30.30,10.0,ESE,6.9,-,N/A,,Clear,110,2013-10-09 14:37:00
10:57 AM,59.0,44.6,59,30.30,10.0,ESE,6.9,-,N/A,,Clear,110,2013-10-09 14:57:00
11:17 AM,59.0,44.6,59,30.30,10.0,ESE,4.6,-,N/A,,Clear,120,2013-10-09 15:17:00
11:37 AM,60.8,44.6,55,30.29,10.0,East,6.9,-,N/A,,Clear,90,2013-10-09 15:37:00
12:17 PM,62.6,42.8,48,30.29,10.0,East,4.6,-,N/A,,Clear,100,2013-10-09 16:17:00
12:37 PM,64.4,42.8,45,30.28,10.0,SE,6.9,-,N/A,,Clear,130,2013-10-09 16:37:00
12:57 PM,64.4,42.8,45,30.28,10.0,ESE,5.8,-,N/A,,Clear,120,2013-10-09 16:57:00
1:17 PM,64.4,42.8,45,30.27,10.0,Calm,Calm,-,N/A,,Clear,0,2013-10-09 17:17:00
1:37 PM,66.2,42.8,43,30.26,10.0,East,3.5,-,N/A,,Clear,100,2013-10-09 17:37:00
1:57 PM,66.2,41.0,40,30.25,10.0,ESE,4.6,-,N/A,,Clear,110,2013-10-09 17:57:00
2:17 PM,66.2,41.0,40,30.24,10.0,East,4.6,-,N/A,,Clear,100,2013-10-09 18:17:00
2:37 PM,68.0,41.0,37,30.23,10.0,East,5.8,-,N/A,,Clear,90,2013-10-09 18:37:00
2:57 PM,68.0,39.2,35,30.23,10.0,NE,4.6,-,N/A,,Clear,40,2013-10-09 18:57:00
3:17 PM,69.8,41.0,35,30.22,10.0,ENE,4.6,-,N/A,,Clear,70,2013-10-09 19:17:00
3:37 PM,69.8,39.2,33,30.21,10.0,ESE,4.6,-,N/A,,Clear,110,2013-10-09 19:37:00
3:57 PM,69.8,41.0,35,30.21,10.0,ENE,5.8,-,N/A,,Clear,70,2013-10-09 19:57:00
4:17 PM,69.8,39.2,33,30.20,10.0,ENE,5.8,-,N/A,,Clear,60,2013-10-09 20:17:00
4:37 PM,69.8,37.4,31,30.20,10.0,ENE,5.8,-,N/A,,Clear,70,2013-10-09 20:37:00
4:57 PM,69.8,35.6,28,30.20,10.0,ESE,4.6,-,N/A,,Clear,110,2013-10-09 20:57:00
5:17 PM,69.8,37.4,31,30.20,10.0,East,4.6,-,N/A,,Clear,100,2013-10-09 21:17:00
5:37 PM,69.8,37.4,31,30.20,10.0,ESE,5.8,-,N/A,,Clear,110,2013-10-09 21:37:00
5:58 PM,68.0,37.4,33,30.20,10.0,East,8.1,-,N/A,,Clear,90,2013-10-09 21:58:00
6:17 PM,68.0,37.4,33,30.20,10.0,ESE,5.8,-,N/A,,Clear,110,2013-10-09 22:17:00
6:37 PM,64.4,37.4,37,30.20,10.0,ESE,5.8,-,N/A,,Clear,110,2013-10-09 22:37:00
6:58 PM,60.8,37.4,42,30.20,10.0,East,3.5,-,N/A,,Clear,100,2013-10-09 22:58:00
7:17 PM,55.4,42.8,63,30.20,10.0,East,3.5,-,N/A,,Clear,90,2013-10-09 23:17:00
7:37 PM,51.8,42.8,71,30.20,10.0,Calm,Calm,-,N/A,,Clear,0,2013-10-09 23:37:00
7:58 PM,50.0,42.8,76,30.20,10.0,Calm,Calm,-,N/A,,Clear,0,2013-10-09 23:58:00
8:17 PM,46.4,42.8,87,30.21,10.0,Calm,Calm,-,N/A,,Clear,0,2013-10-10 00:17:00
8:37 PM,46.4,42.8,87,30.21,10.0,Calm,Calm,-,N/A,,Clear,0,2013-10-10 00:37:00
8:57 PM,46.4,42.8,87,30.21,10.0,Calm,Calm,-,N/A,,Clear,0,2013-10-10 00:57:00
9:17 PM,44.6,42.8,93,30.21,10.0,Calm,Calm,-,N/A,,Clear,0,2013-10-10 01:17:00
9:38 PM,44.6,42.8,93,30.22,10.0,Calm,Calm,-,N/A,,Clear,0,2013-10-10 01:38:00
9:57 PM,44.6,42.8,93,30.22,10.0,Calm,Calm,-,N/A,,Clear,0,2013-10-10 01:57:00
10:17 PM,42.8,41.0,93,30.22,10.0,Calm,Calm,-,N/A,,Clear,0,2013-10-10 02:17:00
10:37 PM,42.8,41.0,93,30.22,10.0,Calm,Calm,-,N/A,,Clear,0,2013-10-10 02:37:00
10:57 PM,42.8,41.0,93,30.21,10.0,Calm,Calm,-,N/A,,Clear,0,2013-10-10 02:57:00
11:17 PM,42.8,41.0,93,30.21,10.0,Calm,Calm,-,N/A,,Clear,0,2013-10-10 03:17:00
11:37 PM,42.8,41.0,93,30.20,10.0,Calm,Calm,-,N/A,,Clear,0,2013-10-10 03:37:00
11:57 PM,41.0,41.0,100,30.20,10.0,Calm,Calm,-,N/A,,Clear,0,2013-10-10 03:57:00